EW9766 Weather Reports


time (UTC)temp
F
wind
direction
speed
knots
gust
knots
rain 1hr
in
rain 24hr
in
rain mn
in
humidity
%
barometer
mb
20260502181606 64 29 3.5 6.1 0.00 0.00 0.00 65 1017.5
20260502163035 58 301 2.6 6.1 0.00 0.00 0.00 75 1016.8
20260502161536 58 346 0.9 2.6 0.00 0.00 0.00 75 1017.0
20260502140106 52 227 0.9 3.5 0.00 0.00 0.00 79 1016.1
20260502130107 52 159 1.7 6.1 0.00 0.00 0.00 78 1015.7
20260502123032 52 169 4.3 8.7 0.00 0.00 0.00 79 1015.7
20260502121529 52 161 4.3 6.1 0.00 0.00 0.00 80 1015.8
20260502113036 52 159 4.3 7.8 0.00 0.00 0.00 80 1016.1
20260502111533 52 136 3.5 7.0 0.00 0.00 0.00 80 1016.2
20260502110039 52 140 2.6 5.2 0.00 0.00 0.00 79 1016.2
20260502104532 53 201 3.5 7.8 0.00 0.00 0.00 77 1016.2
20260502101531 53 142 1.7 4.3 0.00 0.00 0.00 76 1016.6
20260502090107 54 224 1.7 6.1 0.00 0.00 0.00 74 1016.8
20260502071535 52 140 2.6 5.2 0.00 0.00 0.00 75 1017.1
20260502070106 54 157 2.6 4.3 0.00 0.00 0.00 75 1017.0
20260502064533 54 170 3.5 6.1 0.00 0.00 0.00 73 1017.1
20260502063035 55 144 2.6 5.2 0.00 0.00 0.00 73 1017.1
20260502060031 55 166 4.3 7.0 0.00 0.00 0.00 73 1016.9
20260502054535 55 157 3.5 6.1 0.00 0.00 0.00 74 1016.9
20260502053045 56 125 2.6 4.3 0.00 0.00 0.00 73 1016.8
20260502051531 56 152 1.7 6.1 0.00 0.00 0.00 72 1017.0
20260502050035 56 189 3.5 5.2 0.00 0.00 0.00 72 1016.8
20260502044534 57 222 0.9 3.5 0.00 0.00 0.00 71 1016.6
20260502043147 57 159 1.7 4.3 0.00 0.00 0.00 70 1016.5
20260502041531 58 112 2.6 5.2 0.00 0.00 0.00 69 1016.2
20260502040107 59 89 3.5 6.1 0.00 0.00 0.00 69 1016.2
20260502034535 61 206 3.5 7.0 0.00 0.00 0.00 63 1015.9
20260502033032 63 102 3.5 7.8 0.00 0.00 0.00 59 1015.9
20260502031534 63 94 2.6 6.1 0.00 0.00 0.00 59 1016.2
20260502030030 64 156 2.6 6.1 0.00 0.00 0.00 57 1015.8
20260502023035 66 175 3.5 7.8 0.00 0.00 0.00 54 1015.1
20260502021605 68 178 0.9 2.6 0.00 0.00 0.00 51 1015.1
20260502020035 69 225 0.0 1.7 0.00 0.00 0.00 48 1015.1
20260502013142 71 254 0.0 1.7 0.00 0.00 0.00 42 1015.2
20260502011530 71 271 0.9 2.6 0.00 0.00 0.00 42 1015.1
20260502004535 72 307 1.7 4.3 0.00 0.00 0.00 40 1015.1
20260502003030 73 286 1.7 6.1 0.00 0.00 0.00 39 1015.2
20260502001529 72 334 3.5 6.1 0.00 0.00 0.00 40 1015.2
20260502000037 72 9 2.6 6.1 0.00 0.00 0.00 41 1015.4
20260501233144 70 297 0.9 4.3 0.00 0.00 0.00 43 1015.7
20260501231652 71 345 3.5 6.1 0.00 0.00 0.00 41 1016.0
20260501231643 73 329 2.6 7.8 0.00 0.00 0.00 41 1016.1
20260501224534 72 296 2.6 9.6 0.00 0.00 0.00 41 1016.3
20260501223035 72 318 2.6 7.8 0.00 0.00 0.00 42 1016.4
20260501221535 72 328 4.3 8.7 0.00 0.00 0.00 42 1016.6
20260501214532 72 319 3.5 9.6 0.00 0.00 0.00 42 1016.8
20260501213030 72 292 3.5 7.8 0.00 0.00 0.00 42 1016.9
20260501211530 71 321 2.6 7.0 0.00 0.00 0.00 42 1017.0
20260501204537 71 312 3.5 7.8 0.00 0.00 0.00 42 1017.2
20260501203034 69 324 2.6 6.1 0.00 0.00 0.00 43 1017.4
20260501201536 69 353 2.6 5.2 0.00 0.00 0.00 44 1017.6
20260501200151 67 305 1.7 5.2 0.00 0.00 0.00 46 1017.8
20260501194536 66 322 2.6 6.1 0.00 0.00 0.00 46 1017.9
20260501193033 66 310 3.5 7.0 0.00 0.00 0.00 44 1017.9
20260501191536 66 315 2.6 6.1 0.00 0.00 0.00 44 1017.9
20260501190036 65 292 2.6 5.2 0.00 0.00 0.00 45 1018.0
20260501184534 67 269 2.6 6.1 0.00 0.00 0.00 42 1018.2
20260501183106 67 262 3.5 6.1 0.00 0.00 0.00 43 1018.3